Miscellaneous Local Product
Issued by NWS Hastings, NE

Home | Current Version | Previous Version | Text Only | Print | Product List | Glossary On
Versions: 1 2 3 4 5 6 7 8 9 10 11 12 13 14 15 16 17 18 19 20 21 22 23 24 25 26 27 28 29 30 31 32 33 34 35 36 37 38 39 40 41 42 43 44 45 46 47 48 49 50
000
AXUS43 KGID 011502
MISGRI

GID CWA HOURLY WEATHER ROUNDUP
NATIONAL WEATHER SERVICE HASTINGS NE
1000 AM CDT SAT AUG 01 2015

NOTE: "FAIR" INDICATES FEW OR NO CLOUDS BELOW 12,000 FEET WITH NO
SIGNIFICANT WEATHER AND/OR OBSTRUCTIONS TO VISIBILITY.

...SOUTH CENTRAL NEBRASKA...

CITY           SKY/WX    TMP DP  RH WIND       PRES   REMARKS
GRAND ISLAND   PTSUNNY   67  59  75 E12G23    30.11F
HASTINGS       MOSUNNY   73  61  65 NE10G23   30.12F
KEARNEY        MOSUNNY   73  57  56 E13       30.12F
ORD            CLOUDY    66  60  81 E8        30.12F
YORK           LGT RAIN  64  63  94 N16G23    30.14F
AURORA         PTSUNNY   67  61  81 E14G20    30.10F
LEXINGTON      SUNNY     74  58  57 E15G24    30.13F
HOLDREGE       SUNNY     71  58  62 E18G28    30.15F
HEBRON         PTSUNNY   76  61  60 N12       30.12R

...NEBRASKA PANHANDLE...

CITY           SKY/WX    TMP DP  RH WIND       PRES   REMARKS
CHADRON        SUNNY     78  54  43 E3        30.04F
ALLIANCE       SUNNY     79  63  57 VRB7      30.08S
SCOTTSBLUFF    SUNNY     78  58  49 W5        30.09F
SIDNEY         SUNNY     80  61  52 SW16      30.13S

...WESTERN AND NORTH CENTRAL NEBRASKA...

CITY           SKY/WX    TMP DP  RH WIND       PRES   REMARKS
VALENTINE      RAIN      63  61  93 N13       30.18R
AINSWORTH      CLOUDY    69  56  64 SE10      30.11R
ONEILL         CLOUDY    71  59  66 SW10      30.08F
BROKEN BOW     SUNNY     73  60  63 SE10G22   30.14F
IMPERIAL       SUNNY     77  62  59 SW8       30.10F
NORTH PLATTE   SUNNY     72  62  71 SE21G29   30.14R
MCCOOK         SUNNY     77  60  55 E21G28    30.13R

...EASTERN NEBRASKA...

CITY           SKY/WX    TMP DP  RH WIND       PRES   REMARKS
NORFOLK        CLOUDY    71  63  75 SW5       30.08R
SO SIOUX CITY  PTSUNNY   75  66  73 S3        30.03S
TEKAMAH        CLOUDY    70  66  87 E3        30.04F
COLUMBUS       CLOUDY    70  59  68 SW9       30.06F
ALBION         CLOUDY    68  60  75 S12       30.10R
OMAHA EPPLEY   CLOUDY    73  63  70 SW10      30.05F
OFFUTT AFB     CLOUDY    71  70  98 S2        30.07F
MILLARD        CLOUDY    72  64  75 NW8G16    30.07F
LINCOLN        CLOUDY    73  60  63 NW17      30.06F
NEBRASKA CITY  CLOUDY    72  71  96 N6        30.09R
BEATRICE       PTSUNNY   73  64  71 N6        30.08F
FALLS CITY     PTSUNNY   80  73  79 W6        30.05S

...NORTHERN KANSAS...

CITY           SKY/WX    TMP DP  RH WIND       PRES   REMARKS
GOODLAND       SUNNY     78  62  57 SW12      30.14S
HILL CITY      SUNNY     81  68  64 SW3       30.10S
NORTON         MOSUNNY   75  63  64 NE18G25   30.13S
PHILLIPSBURG   MOSUNNY   79  66  65 NE13G24   30.12R
SMITH CENTER   SUNNY     77  64  65 NE16      30.11F
HAYS           SUNNY     81  66  61 SW8       30.09F
RUSSELL        SUNNY     81  71  71 VRB3      30.09R
CONCORDIA      SUNNY     79  71  76 NE7       30.10R
SALINA         SUNNY     84  72  67 SW5       30.07F
TOPEKA         SUNNY     82  73  74 VRB5      30.08R



USA.gov is the U.S. government's official web portal to all federal, state and local government web resources and services.